2022/12/24 00:00:00,87.5,-5.4
2022/12/24 00:10:00,88.5,-5.6
2022/12/24 00:20:00,89.4,-5.4
2022/12/24 00:30:00,89.4,-5.2
2022/12/24 00:40:00,89.5,-5.0
2022/12/24 00:50:00,89.7,-5.2
2022/12/24 01:00:00,89.5,-5.0
2022/12/24 01:10:00,89.7,-5.0
2022/12/24 01:20:00,90.4,-5.1
2022/12/24 01:30:00,90.4,-4.8
2022/12/24 01:40:00,90.7,-5.4
2022/12/24 01:50:00,90.4,-5.2
2022/12/24 02:00:00,90.1,-5.2
2022/12/24 02:10:00,90.0,-5.6
2022/12/24 02:20:00,89.6,-5.6
2022/12/24 02:30:00,89.3,-5.5
2022/12/24 02:40:00,88.9,-5.0
2022/12/24 02:50:00,89.4,-4.9
2022/12/24 03:00:00,90.2,-4.9
2022/12/24 03:10:00,90.8,-4.7
2022/12/24 03:20:00,90.9,-4.6
2022/12/24 03:30:00,91.8,-4.7
2022/12/24 03:40:00,92.2,-4.8
2022/12/24 03:50:00,91.9,-4.3
2022/12/24 04:00:00,91.7,-4.7
2022/12/24 04:10:00,91.5,-4.5
2022/12/24 04:20:00,91.1,-4.4
2022/12/24 04:30:00,88.2,-4.7
2022/12/24 04:40:00,87.9,-4.8
2022/12/24 04:50:00,87.9,-5.1
2022/12/24 05:00:00,87.7,-4.8
2022/12/24 05:10:00,87.5,-4.8
2022/12/24 05:20:00,87.2,-4.7
2022/12/24 05:30:00,86.9,-4.6
2022/12/24 05:40:00,86.8,-4.6
2022/12/24 05:50:00,86.6,-4.6
2022/12/24 06:00:00,85.9,-4.3
2022/12/24 06:10:00,85.5,-4.5
2022/12/24 06:20:00,85.9,-4.4
2022/12/24 06:30:00,86.1,-4.5
2022/12/24 06:40:00,86.8,-4.1
2022/12/24 06:50:00,86.6,-3.9
2022/12/24 07:00:00,87.0,-4.0
2022/12/24 07:10:00,88.1,-4.0
2022/12/24 07:20:00,88.2,-4.0
2022/12/24 07:30:00,88.4,-4.2
2022/12/24 07:40:00,88.8,-3.9
2022/12/24 07:50:00,89.5,-3.6
2022/12/24 08:00:00,89.5,-3.4
2022/12/24 08:10:00,89.4,-3.2
2022/12/24 08:20:00,89.5,-2.9
2022/12/24 08:30:00,89.5,-2.6
2022/12/24 08:40:00,89.5,-2.2
2022/12/24 08:50:00,89.6,-2.8
2022/12/24 09:00:00,90.4,-2.3
2022/12/24 09:10:00,90.4,-1.8
2022/12/24 09:20:00,90.4,-1.3
2022/12/24 09:30:00,89.8,-1.7
2022/12/24 09:40:00,89.8,-1.2
2022/12/24 09:50:00,89.6,-1.1
2022/12/24 10:00:00,89.4,-0.5
2022/12/24 10:10:00,89.2,-0.2
2022/12/24 10:20:00,88.9,-0.3
2022/12/24 10:30:00,88.6,-0.4
2022/12/24 10:40:00,88.4, 0.2
2022/12/24 10:50:00,88.1, 0.1
2022/12/24 11:00:00,87.7, 0.5
2022/12/24 11:10:00,87.5, 0.8
2022/12/24 11:20:00,87.3,-0.5
2022/12/24 11:30:00,88.0,-0.1
2022/12/24 11:40:00,87.9, 0.2
2022/12/24 11:50:00,87.9,-0.4
2022/12/24 12:00:00,88.5, 0.0
2022/12/24 12:10:00,88.4, 0.0
2022/12/24 12:20:00,88.4,-0.4
2022/12/24 12:30:00,88.7, 0.3
2022/12/24 12:40:00,88.5, 0.0
2022/12/24 12:50:00,88.5, 0.0
2022/12/24 13:00:00,88.6, 0.7
2022/12/24 13:10:00,88.6,-0.1
2022/12/24 13:20:00,88.5,-0.2
2022/12/24 13:30:00,88.3,-0.4
2022/12/24 13:40:00,88.3,-0.7
2022/12/24 13:50:00,88.2,-0.7
2022/12/24 14:00:00,87.8,-0.7
2022/12/24 14:10:00,87.6,-0.3
2022/12/24 14:20:00,87.5,-0.4
2022/12/24 14:30:00,87.2,-0.5
2022/12/24 14:40:00,87.0,-0.4
2022/12/24 14:50:00,87.0,-1.0
2022/12/24 15:00:00,86.9,-0.6
2022/12/24 15:10:00,86.6,-0.8
2022/12/24 15:20:00,86.5,-1.2
2022/12/24 15:30:00,86.2,-0.9
2022/12/24 15:40:00,86.3,-0.8
2022/12/24 15:50:00,86.1,-1.2
2022/12/24 16:00:00,86.0,-0.7
2022/12/24 16:10:00,85.9,-0.7
2022/12/24 16:20:00,86.0,-1.2
2022/12/24 16:30:00,85.9,-1.1
2022/12/24 16:40:00,85.7,-0.4
2022/12/24 16:50:00,85.6,-1.0
2022/12/24 17:00:00,85.4,-1.0
2022/12/24 17:10:00,85.2,-1.4
2022/12/24 17:20:00,85.1,-1.2
2022/12/24 17:30:00,85.3,-1.2
2022/12/24 17:40:00,85.1,-1.1
2022/12/24 17:50:00,84.9,-1.4
2022/12/24 18:00:00,84.9,-1.4
2022/12/24 18:10:00,84.7,-1.5
2022/12/24 18:20:00,84.7,-1.2
2022/12/24 18:30:00,84.5,-1.8
2022/12/24 18:40:00,84.4,-1.8
2022/12/24 18:50:00,84.4,-1.6
2022/12/24 19:00:00,84.2,-1.4
2022/12/24 19:10:00,84.0,-1.6
2022/12/24 19:20:00,83.8,-1.8
2022/12/24 19:30:00,83.8,-1.5
2022/12/24 19:40:00,84.0,-1.4
2022/12/24 19:50:00,83.8,-1.3
2022/12/24 20:00:00,83.5,-1.2
2022/12/24 20:10:00,83.4,-1.3
2022/12/24 20:20:00,83.2,-1.2
2022/12/24 20:30:00,83.0,-1.7
2022/12/24 20:40:00,83.3,-1.7
2022/12/24 20:50:00,83.5,-1.8
2022/12/24 21:00:00,83.6,-1.6
2022/12/24 21:10:00,83.6,-1.4
2022/12/24 21:20:00,83.5,-1.3
2022/12/24 21:30:00,83.4,-1.2
2022/12/24 21:40:00,83.4,-1.3
2022/12/24 21:50:00,83.3,-1.5
2022/12/24 22:00:00,83.1,-1.1
2022/12/24 22:10:00,83.0,-1.4
2022/12/24 22:20:00,82.9,-1.2
2022/12/24 22:30:00,83.2,-1.6
2022/12/24 22:40:00,83.4,-1.7
2022/12/24 22:50:00,83.6,-1.2
2022/12/24 23:00:00,83.7,-1.5
2022/12/24 23:10:00,83.7,-1.2
2022/12/24 23:20:00,83.5,-1.7
2022/12/24 23:30:00,83.6,-1.5
2022/12/24 23:40:00,83.5,-1.4
2022/12/24 23:50:00,83.3,-1.4
